Buena Vista, CO

9:50 PM MDT on September 28, 2016 (GMT -0600)
Buena Vista

Weather History for KAEJ - August, 2014

Change the Weather History Date:

Sunday, August 31, 2014

  Actual Average (KLXV) Record (KLXV)
Temperature  
Mean Temperature 58 °F -  
Max Temperature 75 °F 65 °F 76 °F (1981)
Min Temperature 42 °F 35 °F 27 °F (1980)
Degree Days  
Heating Degree Days 6 15  
Month to date heating degree days 387  
Since 1 June heating degree days 1202  
Since 1 July heating degree days 722  
Cooling Degree Days 0 0  
Month to date cooling degree days 0  
Year to date cooling degree days 0  
Since 1 June cooling degree days 0  
Growing Degree Days 8 (Base 50)    
Moisture  
Dew Point 35 °F    
Average Humidity 49    
Maximum Humidity 83    
Minimum Humidity 16    
Precipitation  
Precipitation 0.00 in 0.06 in 1.20 in (1986)
Month to date precipitation 2.03  
Year to date precipitation 8.95  
Sea Level Pressure  
Sea Level Pressure 30.13 in    
Wind  
Wind Speed 8 mph (WSW)    
Max Wind Speed 28 mph    
Max Gust Speed 40 mph    
Visibility 10 miles    
Events Rain    
T = Trace of Precipitation, MM = Missing Value Source: NWS Daily Summary

Daily Weather History Graph

Daily Weather History Graph

Search for Another Location

Airport or City:

Trip Planner

Search our weather history database for the weather conditions in past years. The results will help you decide how hot, cold, wet, or windy it might be!

Date:

Astronomy

Aug. 31, 2014 Rise Set
Actual Time 6:32 AM MDT 7:36 PM MDT
Civil Twilight 6:05 AM MDT 8:03 PM MDT
Nautical Twilight 5:32 AM MDT 8:35 PM MDT
Astronomical Twilight 4:58 AM MDT 9:09 PM MDT
Moon 12:18 PM MDT (8/31) 10:56 PM MDT (8/31)
Length of Visible Light 13h 58m
Length of Day
13h 03m
Waxing Crescent, 32% of the Moon is Illuminated
Aug 31
Waxing Crescent
Sep 2
First Quarter
Sep 8
Full
Sep 15
Last Quarter
Sep 24
New

Hourly Weather History & Observations

Time (MDT) Temp. Windchill Dew Point Humidity Pressure Visibility Wind Dir Wind Speed Gust Speed Precip Events Conditions
12:15 AM 46.2 °F 44.1 °F 40.1 °F 79% 30.18 in 10.0 mi WNW 4.6 mph - N/A   Clear
12:35 AM 46.6 °F - 39.2 °F 75% 30.18 in 10.0 mi WNW 4.6 mph - N/A   Clear
1:15 AM 43.7 °F 40.3 °F 37.9 °F 80% 30.17 in 10.0 mi West 5.8 mph - N/A   Clear
1:35 AM 43.0 °F 39.5 °F 37.9 °F 82% 30.16 in 10.0 mi WNW 5.8 mph - N/A   Clear
1:55 AM 43.7 °F 41.1 °F 38.7 °F 82% 30.16 in 10.0 mi WNW 4.6 mph - N/A   Clear
2:15 AM 44.4 °F 42.9 °F 38.3 °F 79% 30.15 in 10.0 mi West 3.5 mph - N/A   Clear
2:35 AM 42.1 °F 39.2 °F 37.4 °F 83% 30.15 in 10.0 mi West 4.6 mph - N/A   Clear
2:55 AM 43.5 °F 40.1 °F 37.9 °F 81% 30.14 in 10.0 mi WNW 5.8 mph - N/A   Clear
3:15 AM 43.3 °F 39.2 °F 38.3 °F 82% 30.14 in 10.0 mi WNW 6.9 mph - N/A   Clear
3:35 AM 44.6 °F - 38.3 °F 79% 30.14 in 10.0 mi Calm Calm - N/A   Clear
3:55 AM 42.8 °F - 37.6 °F 82% 30.12 in 10.0 mi Calm Calm - N/A   Clear
4:15 AM 44.2 °F 42.7 °F 38.1 °F 79% 30.12 in 10.0 mi WNW 3.5 mph - N/A   Scattered Clouds
4:35 AM 44.1 °F - 38.1 °F 80% 30.11 in 10.0 mi Calm Calm - N/A   Scattered Clouds
4:55 AM 43.0 °F 40.3 °F 37.8 °F 82% 30.12 in 10.0 mi WNW 4.6 mph - N/A   Clear
5:15 AM 43.2 °F 39.7 °F 37.6 °F 81% 30.11 in 10.0 mi WSW 5.8 mph - N/A   Clear
5:35 AM 43.9 °F - 37.8 °F 79% 30.12 in 10.0 mi Calm Calm - N/A   Clear
5:55 AM 44.6 °F 43.1 °F 37.6 °F 76% 30.12 in 10.0 mi NW 3.5 mph - N/A   Clear
6:15 AM 44.1 °F - 37.6 °F 78% 30.11 in 10.0 mi Calm Calm - N/A   Clear
6:35 AM 43.0 °F - 37.0 °F 80% 30.11 in 10.0 mi Calm Calm - N/A   Clear
6:55 AM 42.8 °F 39.3 °F 36.5 °F 78% 30.12 in 10.0 mi West 5.8 mph - N/A   Clear
7:15 AM 45.0 °F 43.5 °F 38.5 °F 78% 30.12 in 10.0 mi WNW 3.5 mph - N/A   Clear
7:35 AM 50.9 °F - 39.4 °F 65% 30.12 in 10.0 mi West 3.5 mph - N/A   Clear
7:55 AM 54.9 °F - 38.3 °F 54% 30.12 in 10.0 mi Calm Calm - N/A   Clear
8:15 AM 56.5 °F - 40.6 °F 55% 30.13 in 10.0 mi North 3.5 mph - N/A   Clear
8:35 AM 59.7 °F - 39.6 °F 47% 30.13 in 10.0 mi Calm Calm - N/A   Clear
8:55 AM 63.3 °F - 37.4 °F 38% 30.12 in 10.0 mi East 5.8 mph - N/A   Clear
9:15 AM 66.7 °F - 34.0 °F 30% 30.11 in 10.0 mi Calm Calm - N/A   Clear
9:35 AM 71.4 °F - 29.1 °F 21% 30.11 in 10.0 mi West 24.2 mph 33.4 mph N/A   Scattered Clouds
10:15 AM 72.1 °F - 28.0 °F 19% 30.12 in 10.0 mi WSW 17.3 mph 29.9 mph N/A   Clear
11:15 AM 73.6 °F - 27.1 °F 18% 30.11 in 10.0 mi WSW 18.4 mph 31.1 mph N/A   Scattered Clouds
11:35 AM 73.9 °F - 26.1 °F 17% 30.11 in 10.0 mi SW 19.6 mph 34.5 mph N/A   Clear
11:55 AM 74.5 °F - 27.0 °F 17% 30.11 in 10.0 mi SW 18.4 mph 31.1 mph N/A   Clear
12:15 PM 75.4 °F - 26.6 °F 16% 30.10 in 10.0 mi SW 11.5 mph 24.2 mph N/A   Scattered Clouds
12:35 PM 74.8 °F - 28.6 °F 18% 30.10 in 10.0 mi West 26.5 mph 35.7 mph N/A   Mostly Cloudy
12:55 PM 72.3 °F - 28.8 °F 20% 30.12 in 10.0 mi SSW 17.3 mph 28.8 mph N/A   Mostly Cloudy
1:15 PM 69.8 °F - 34.0 °F 27% 30.14 in 10.0 mi SW 21.9 mph 36.8 mph N/A Rain Light Rain
1:35 PM 71.6 °F - 30.9 °F 22% 30.12 in 10.0 mi SW 10.4 mph 20.7 mph N/A   Scattered Clouds
1:55 PM 75.0 °F - 27.7 °F 17% 30.11 in 10.0 mi West 21.9 mph 33.4 mph N/A   Scattered Clouds
2:15 PM 70.0 °F - 29.3 °F 22% 30.12 in 10.0 mi West 21.9 mph 38.0 mph N/A   Light Drizzle
2:35 PM 69.8 °F - 29.5 °F 22% 30.11 in 10.0 mi West 23.0 mph 32.2 mph N/A   Mostly Cloudy
2:55 PM 62.2 °F - 41.5 °F 47% 30.14 in 7.0 mi West 23.0 mph 40.3 mph N/A Rain Light Rain
3:15 PM 66.6 °F - 33.4 °F 29% 30.16 in 10.0 mi West 27.6 mph 38.0 mph N/A   Mostly Cloudy
3:35 PM 65.1 °F - 36.5 °F 35% 30.13 in 10.0 mi WSW 10.4 mph - N/A   Scattered Clouds
3:55 PM 71.1 °F - 31.8 °F 23% 30.12 in 10.0 mi WSW 19.6 mph 28.8 mph N/A   Clear
4:15 PM 72.5 °F - 31.6 °F 22% 30.12 in 10.0 mi SSW 18.4 mph 27.6 mph N/A   Clear
4:35 PM 72.5 °F - 31.1 °F 22% 30.11 in 10.0 mi South 19.6 mph 24.2 mph N/A   Clear
4:55 PM 71.2 °F - 31.8 °F 23% 30.12 in 10.0 mi SSW 12.7 mph 20.7 mph N/A   Clear
5:15 PM 68.9 °F - 32.0 °F 25% 30.11 in 10.0 mi SSW 15.0 mph 24.2 mph N/A Rain Light Rain
5:35 PM 70.0 °F - 32.0 °F 25% 30.12 in 10.0 mi SSW 16.1 mph 25.3 mph N/A   Clear
5:55 PM 69.3 °F - 31.6 °F 25% 30.11 in 10.0 mi WSW 15.0 mph 19.6 mph N/A   Clear
6:15 PM 67.3 °F - 31.6 °F 27% 30.12 in 10.0 mi WSW 12.7 mph - N/A   Scattered Clouds
6:35 PM 66.4 °F - 32.4 °F 28% 30.12 in 10.0 mi SE 5.8 mph - N/A   Scattered Clouds
6:55 PM 63.9 °F - 34.0 °F 33% 30.11 in 10.0 mi SSE 5.8 mph - N/A   Scattered Clouds
7:15 PM 61.7 °F - 35.6 °F 38% 30.11 in 10.0 mi SE 5.8 mph - N/A   Clear
7:35 PM 60.3 °F - 36.3 °F 41% 30.11 in 10.0 mi ESE 9.2 mph - N/A   Clear
7:55 PM 60.1 °F - 35.8 °F 40% 30.11 in 10.0 mi SE 9.2 mph - N/A   Clear
8:15 PM 59.2 °F - 35.8 °F 42% 30.11 in 10.0 mi SSE 4.6 mph - N/A   Clear
8:35 PM 56.7 °F - 36.7 °F 47% 30.12 in 10.0 mi South 4.6 mph - N/A   Clear
8:55 PM 55.6 °F - 35.8 °F 47% 30.13 in 10.0 mi Calm Calm - N/A   Clear
9:15 PM 52.2 °F - 35.2 °F 53% 30.13 in 10.0 mi West 8.1 mph - N/A   Scattered Clouds
9:35 PM 52.2 °F - 34.7 °F 51% 30.13 in 10.0 mi Calm Calm - N/A   Scattered Clouds
10:15 PM 50.9 °F - 35.4 °F 55% 30.13 in 10.0 mi WNW 5.8 mph - N/A   Scattered Clouds
10:35 PM 52.7 °F - 34.7 °F 50% 30.14 in 10.0 mi WNW 8.1 mph - N/A   Scattered Clouds
11:15 PM 50.5 °F - 34.2 °F 53% 30.15 in 10.0 mi WNW 6.9 mph - N/A   Clear
11:35 PM 49.5 °F - 34.2 °F 56% 30.15 in 10.0 mi NNW 8.1 mph - N/A   Clear
11:55 PM 49.1 °F - 34.3 °F 57% 30.14 in 10.0 mi North 5.8 mph - N/A   Clear